User: anonymous   Login
Location: Dulzura
(32.6442°N, 116.7814°W)
Time: 00:20:35
(UTC+00:00)
Language:

Oscar 11 - Orbit

View from above orbital plane
View from above orbital plane
View from above satellite
View from above satellite

Ground track
Ground track

The orbit data is extracted from the following two-line orbital elements,

1 14781U 84021B   23088.87169757  .00003327  00000-0  39985-3 0  9999
2 14781  97.6511  68.9225 0009945 100.5505 259.6831 14.84574038 82375
Epoch (UTC): 29 March 2023 20:55:14
Eccentricity: 0.0009945
inclination: 97.6511°
perigee height: 608 km
apogee height: 622 km
right ascension of ascending node: 68.9225°
argument of perigee: 100.5505°
revolutions per day: 14.84574038
mean anomaly at epoch: 259.6831°
orbit number at epoch: 8237

The dashed part of the orbit path shows where the satellite is in the earth's shadow,  

DLR